Simultaneous Nadir Overpasses (SNOs) Predictions

Prediction of SNOs between LANDSAT-8 and METOP-B Satellite Orbit:

Table of predicted SNOs for the next 14.0 days since TLE Epoch: 11/14/2016
Index Date (LANDSAT-8) Time (LANDSAT-8) Lat,Lon (LANDSAT-8) SZA (LANDSAT-8 ) Date (METOP-B) Time (METOP-B) Lat,Lon (METOP-B) SZA (METOP-B ) Distance(km) Time Diff (sec)
1 11/14/2016 14:50:35 -81.08, 176.60 78.21 11/14/2016 14:49:48 -81.08, 176.75 78.21 2.62 47
2 11/14/2016 15:40:00 81.11, -15.28 101.88 11/14/2016 15:40:27 81.11, -15.18 101.90 1.74 27
3 11/17/2016 10:24:50 -81.09,-116.77 77.50 11/17/2016 10:24:11 -81.09,-116.58 77.50 3.28 39
4 11/17/2016 11:14:16 81.10, 50.96 102.53 11/17/2016 11:14:51 81.11, 51.08 102.56 2.24 35
5 11/20/2016 05:59:05 -81.08, -50.57 76.90 11/20/2016 05:58:35 -81.08, -50.69 76.93 2.04 30
6
